Regional Weather Roundup
Issued by NWS

Home | Current Version | Previous Version | Text Only | Print | Product List | Glossary Off
Versions: 1 2 3 4 5 6 7 8 9 10 11 12 13 14 15 16 17 18 19 20 21 22 23 24 25 26 27 28 29 30 31 32 33 34 35 36 37 38 39 40 41 42 43 44 45 46 47 48 49 50

927
ASUS43 KDTX 280710
RWRMI
MICHIGAN HOURLY REGIONAL WEATHER ROUNDUP
NATIONAL WEATHER SERVICE DETROIT/PONTIAC MI
300 AM EDT THU JUL 28 2016

NOTE: "FAIR" INDICATES FEW OR NO CLOUDS BELOW 12,000 FEET WITH NO
SIGNIFICANT WEATHER AND/OR OBSTRUCTION TO VISIBILITY.

MIZ047>049-052>055-059>063-066>070-074>076-081>083-280800-
SOUTHEAST LOWER MICHIGAN

CITY           SKY/WX    TMP DP  RH WIND       PRES   REMARKS
ADRIAN         PTCLDY    67  65  93 CALM      29.93F
ALMA           FOG       64  64 100 CALM      29.95F VSB 1/2
ANN ARBOR      CLEAR     65  63  93 N3        29.92F
BAD AXE        MOCLDY    61  61 100 CALM      29.95F
CARO           PTCLDY    64  64  97 CALM      29.94S FOG
DETROIT CITY   CLEAR     73  67  81 N5        29.92F
DETROIT        PTCLDY    73  64  73 N3        29.92F
FLINT          CLEAR     65  62  90 CALM      29.94F
GROSSE ILE     CLEAR     72  66  82 NW5       29.90F
HILLSDALE      CLEAR     63  61  93 CALM      29.95F
HOWELL         CLEAR     65  63  94 CALM      29.94F

CITY           SKY/WX    TMP DP  RH WIND       PRES   REMARKS
JACKSON        CLEAR     64  64 100 W3        29.94F
LAMBERTVILLE   PTCLDY    69  65  89 CALM      29.92F
LANSING        CLEAR     66  62  87 CALM      29.95F
LAPEER         FAIR      62  60  95 CALM      29.94F
MASON          CLEAR     63  61  94 CALM      29.94F
MONROE         CLEAR     69  66  90 CALM      29.90F
MT. CLEMENS    CLEAR     68  64  89 N7        29.90F
PONTIAC        CLEAR     67  64  90 CALM      29.93F
PORT HOPE        N/A     65  64  97 SW6       29.93F
PORT HURON     PTCLDY    64  63  94 NW5       29.93F
TRI CITIES     CLEAR     67  66  97 CALM      29.95S
MIDLAND        FOG       64  64 100 CALM      29.94S VSB 3/4
TROY           CLEAR     73  65  75 CALM      29.94F
SAGINAW HB     CLEAR     64  63  94 CALM      29.94S FOG
$$
MIZ043>046-050>051-056>058-064>065-071>073-077>080-280800-
SOUTHWEST LOWER MICHIGAN

CITY           SKY/WX    TMP DP  RH WIND       PRES   REMARKS
BATTLE CREEK   CLOUDY    67  65  93 CALM      29.94F
BENTON HARBOR  CLEAR     67  64  90 E3        29.92F
BIG RAPIDS     FOG       67  67 100 CALM      29.95S VSB 1/4
COLDWATER      CLEAR     65  65  99 CALM      29.93F
FREMONT        FAIR      69  69 100 CALM      29.94F
HOLLAND        PTCLDY    68  65  90 CALM      29.94F
GRAND RAPIDS   PTCLDY    68  64  87 N3        29.94F
IONIA          FAIR      63  61  94 N3        29.94F
KALAMAZOO      CLOUDY    69  63  81 CALM      29.93F
LUDINGTON      CLOUDY    68  65  91 N5        29.94F
MARSHALL       CLOUDY    65  65  98 CALM      29.93F
MOUNT PLEASANT CLOUDY    67  66  99 CALM      29.94F FOG
MUSKEGON       PTCLDY    71  68  90 CALM      29.94S
SOUTH HAVEN    PTCLDY    65  65  98 CALM      29.93F
$$
MIZ016>042-280800-
NORTHERN LOWER MICHIGAN

CITY           SKY/WX    TMP DP  RH WIND       PRES   REMARKS
ALPENA         CLOUDY    67  63  87 NW5       29.97R
BEAVER ISLAND  CLOUDY    65  55  71 N6        30.01S
BELLAIRE       CLOUDY    69  56  61 N5        29.97F
CADILLAC       CLOUDY    67  65  93 N3        29.97S
CHARLEVOIX     CLOUDY    68  57  67 N9        30.02S
FRANKFORT      CLOUDY    71  66  84 N5        29.96S
GAYLORD        CLOUDY    68  54  60 CALM      30.00S
GRAYLING       CLOUDY    69  62  77 N5        29.99S
HARBOR SPRINGS CLOUDY    66  58  76 CALM      29.99S
HOUGHTON LAKE  CLOUDY    67  65  93 NE3       29.97F
MANISTEE       CLOUDY    69  65  86 CALM      29.95S
OSCODA         LGT RAIN  66  66  97 CALM      29.94F
PELLSTON       CLOUDY    64  57  78 CALM      30.00R
ROGERS CITY    CLOUDY    66  56  68 W3        29.99R
TRAVERSE CITY  MOCLDY    74  60  61 NE12      29.95S
$$
MIZ007>008-015-280800-
EASTERN UPPER MICHIGAN

CITY           SKY/WX    TMP DP  RH WIND       PRES   REMARKS
KINROSS        LGT RAIN  60  57  89 NW6       29.99S
MACKINAC ISLAN DRIZZLE   62  55  75 N6        29.99R
NEWBERRY       CLOUDY    59  57  94 W3        30.01R
S. S. MARIE    MOCLDY    63  58  83 NW5       29.97S
MUNISING         N/A     61  60  97 S3        30.01S
$$
MIZ004>006-011>014-085-280800-
CENTRAL UPPER MICHIGAN

CITY           SKY/WX    TMP DP  RH WIND       PRES   REMARKS
MANISTIQUE     LGT RAIN  59  59 100 NW5       30.02R
ESCANABA       CLOUDY    61  57  88 NE5       30.00F
MENOMINEE      LGT RAIN N/A N/A N/A N5        30.01S
SAWYER-GWINN   LGT RAIN  60  55  84 CALM      30.04S
$$
MIZ001>003-009>011-084-280800-
WESTERN UPPER MICHIGAN

CITY           SKY/WX    TMP DP  RH WIND       PRES   REMARKS
IRON MOUNTAIN  LGT RAIN  61  56  83 CALM      30.02S
HOUGHTON       PTCLDY    57  53  86 NW8       30.04R
IRONWOOD       CLOUDY    61  61 100 NE3       30.02S
$$

ABBREVIATIONS USED IN REMARKS
   TC - TEMPERATURE IN CELSIUS
  WCI - WIND CHILL INDEX
   HX - HEAT INDEX
  VSB - VISIBILITY





USA.gov is the U.S. government's official web portal to all federal, state and local government web resources and services.